FW0412 Weather Reports


time (UTC)temp
F
wind
direction
speed
knots
gust
knots
rain 1hr
in
rain 24hr
in
rain mn
in
humidity
%
barometer
mb
20260503224539 70 291 7.0 7.0 0.00 0.02 0.00 47 1016.1
20260503223516 70 255 5.2 7.8 0.00 0.02 0.00 47 1016.1
20260503222521 70 248 5.2 7.8 0.00 0.02 0.00 47 1016.3
20260503221525 70 257 5.2 7.0 0.00 0.02 0.00 48 1016.3
20260503220529 69 270 5.2 7.0 0.00 0.02 0.00 48 1016.4
20260503215516 70 260 4.3 7.0 0.00 0.02 0.00 50 1016.4
20260503214521 70 262 6.1 7.8 0.00 0.02 0.00 49 1016.4
20260503213525 70 271 6.1 7.8 0.00 0.02 0.00 48 1016.4
20260503212529 70 258 5.2 7.0 0.00 0.02 0.00 48 1016.4
20260503211516 70 247 4.3 7.8 0.00 0.02 0.00 48 1016.3
20260503210520 69 241 4.3 7.0 0.00 0.02 0.00 49 1016.4
20260503205525 68 225 4.3 7.0 0.00 0.02 0.00 50 1016.5
20260503204529 70 246 5.2 7.0 0.00 0.02 0.00 48 1016.7
20260503203515 70 247 5.2 7.8 0.00 0.02 0.00 48 1016.7
20260503202519 70 264 4.3 6.1 0.00 0.02 0.00 49 1016.7
20260503201524 70 260 5.2 7.8 0.00 0.02 0.00 48 1016.7
20260503200529 68 263 5.2 7.0 0.00 0.02 0.00 48 1016.8
20260503195515 70 249 4.3 6.1 0.00 0.02 0.00 46 1016.8
20260503194519 70 305 3.5 4.3 0.00 0.02 0.00 48 1016.9
20260503193524 70 241 5.2 7.8 0.00 0.02 0.00 46 1016.9
20260503192528 69 289 3.5 5.2 0.00 0.02 0.00 48 1017.1
20260503191552 68 263 1.7 4.3 0.00 0.02 0.00 49 1017.2
20260503190519 69 330 2.6 5.2 0.00 0.02 0.00 49 1017.2
20260503185544 66 241 2.6 5.2 0.00 0.02 0.00 52 1017.3
20260503184548 66 281 2.6 5.2 0.00 0.02 0.00 53 1017.4
20260503183533 66 290 2.6 5.2 0.00 0.02 0.00 54 1017.5
20260503182519 65 270 2.6 4.3 0.00 0.02 0.00 56 1017.5
20260503181524 65 342 3.5 5.2 0.00 0.02 0.00 57 1017.6
20260503180529 64 250 3.5 6.1 0.00 0.02 0.00 59 1017.7
20260503175535 62 267 2.6 3.5 0.00 0.02 0.00 66 1017.7
20260503174519 60 301 3.5 6.1 0.00 0.02 0.00 69 1017.8
20260503173544 59 256 3.5 4.3 0.00 0.02 0.00 72 1017.7
20260503172522 59 264 3.5 6.1 0.00 0.02 0.00 75 1017.7
20260503171515 59 269 3.5 5.2 0.00 0.02 0.00 73 1017.6
20260503170519 60 290 3.5 4.3 0.00 0.02 0.00 73 1017.4
20260503150519 56 0.0 0.0 0.00 0.02 0.00 90 1016.7
20260503130519 53 0.0 0.0 0.00 0.02 0.00 97 1015.7
20260503110520 52 0.0 0.0 0.00 0.02 0.00 99 1015.5
20260503081525 53 0.0 0.0 0.00 0.02 0.00 99 1016.0
20260503080530 53 0.0 0.0 0.00 0.01 0.00 99 1016.1
20260503072530 53 0.0 0.0 0.00 0.01 0.00 99 1015.9
20260503071516 52 0.0 0.0 0.00 0.01 0.00 99 1015.8
20260503070520 52 94 1.7 2.6 0.00 0.01 0.00 99 1015.8
20260503054520 49 0.0 0.0 0.00 0.01 0.01 99 1015.5
20260503053524 48 0.0 0.0 0.00 0.01 0.01 99 1015.4
20260503052609 48 330 0.0 0.9 0.00 0.01 0.01 99 1015.3
20260503051515 48 0.0 0.0 0.00 0.01 0.01 97 1015.3
20260503050539 48 0.0 0.0 0.00 0.01 0.01 95 1015.2
20260503045524 49 0.0 0.0 0.00 0.01 0.01 94 1015.0
20260503044528 49 0.0 0.0 0.00 0.01 0.01 94 1015.1
20260503043527 50 0.0 0.0 0.00 0.01 0.01 94 1015.0
20260503042519 50 0.0 0.0 0.00 0.01 0.01 94 1015.0
20260503041544 51 0.0 0.0 0.00 0.01 0.01 93 1015.0
20260503040522 51 0.0 0.0 0.00 0.01 0.01 93 1015.0
20260503035520 52 0.0 0.0 0.01 0.01 0.01 93 1014.8
20260503034519 52 0.0 0.0 0.01 0.01 0.01 93 1014.8
20260503033517 53 0.0 0.0 0.01 0.01 0.01 92 1014.8
20260503032516 54 326 0.0 1.7 0.01 0.01 0.01 91 1014.8
20260503031519 54 257 0.9 1.7 0.01 0.01 0.01 89 1014.8
20260503030524 55 266 1.7 1.7 0.01 0.01 0.01 88 1014.5
20260503025528 55 256 1.7 2.6 0.00 0.00 0.00 86 1014.4
20260503024553 56 268 1.7 3.5 0.00 0.00 0.00 83 1014.2
20260503023518 58 264 2.6 3.5 0.00 0.00 0.00 79 1014.2
20260503022543 59 267 4.3 6.1 0.00 0.00 0.00 76 1014.2
20260503021528 60 247 3.5 4.3 0.00 0.00 0.00 75 1014.2
20260503020533 61 294 2.6 3.5 0.00 0.00 0.00 74 1014.2
20260503015519 62 271 2.6 3.5 0.00 0.00 0.00 71 1014.2
20260503014604 62 251 2.6 5.2 0.00 0.00 0.00 71 1014.2
20260503013527 64 255 3.5 5.2 0.00 0.00 0.00 66 1014.2
20260503012532 65 286 3.5 4.3 0.00 0.00 0.00 65 1014.2
20260503011539 65 237 3.5 5.2 0.00 0.00 0.00 65 1014.2
20260503010523 66 269 3.5 5.2 0.00 0.00 0.00 63 1014.2
20260503005527 66 258 3.5 5.2 0.00 0.00 0.00 64 1014.4
20260503004532 67 263 4.3 6.1 0.00 0.00 0.00 63 1014.4
20260503003518 68 263 4.3 6.1 0.00 0.00 0.00 62 1014.3
20260503002523 68 265 3.5 5.2 0.00 0.00 0.00 61 1014.2
20260503001527 68 265 3.5 5.2 0.00 0.00 0.00 61 1014.2
20260503000612 68 254 4.3 7.0 0.00 0.00 0.00 61 1014.3
20260502235518 70 273 4.3 6.1 0.00 0.00 0.00 59 1014.3
20260502234522 69 261 3.5 5.2 0.00 0.00 0.00 59 1014.3
20260502233527 70 250 4.3 6.1 0.00 0.00 0.00 58 1014.4
20260502232525 69 252 3.5 7.0 0.00 0.00 0.00 60 1014.5
20260502231558 70 265 3.5 5.2 0.00 0.00 0.00 59 1014.7
20260502230522 70 266 3.5 5.2 0.00 0.00 0.00 58 1014.8
20260502225520 71 257 3.5 6.1 0.00 0.00 0.00 58 1014.9